Location: Hylvaty SDH
(49.9612°N, 16.4057°E)
Time: 09:58:32
(UTC+01:00)

Tiros 1 - Visible Passes

Search period start: 23 January 2020 00:00
Search period end: 02 February 2020 00:00
Orbit: 630 x 664 km, 48.4° (Epoch: 22 January)

Date Brightness Start Highest point End Pass type
(mag) Time Alt. Az. Time Alt. Az. Time Alt. Az.
23 Jan 8.0 17:56:24 10° W 18:01:00 49° SSW 18:05:38 10° SE visible
23 Jan 9.4 19:39:19 10° W 19:42:29 18° SW 19:43:21 17° SSW visible
24 Jan 8.8 18:22:35 10° W 18:26:49 32° SSW 18:31:03 10° SSE visible
25 Jan 8.1 17:06:21 10° W 17:10:57 50° SSW 17:15:35 10° SE visible
25 Jan 9.6 18:49:10 10° W 18:52:28 19° SW 18:55:47 10° S visible
26 Jan 8.9 17:32:31 10° W 17:36:47 33° SSW 17:41:04 10° SE visible
27 Jan 9.7 17:59:01 10° W 18:02:28 20° SW 18:05:54 10° S visible
28 Jan 10.5 18:27:36 10° SW 18:27:57 10° SW 18:28:18 10° SW visible
30 Jan 10.5 17:36:43 10° WSW 17:37:58 11° SW 17:39:13 10° SSW visible
